User: anonymous   Login
Location: Unspecified
(0.0000°N, 0.0000°E)
Time: 03:50:02
(UTC+00:00)
Language:

DOUBLE STAR - Orbit

View from above orbital plane
View from above orbital plane
View from above satellite
View from above satellite

Ground track
Ground track

The orbit data is extracted from the following two-line orbital elements,

1 28382U 04029A   18291.94650521 +.00001824 +00000-0 +54573-3 0  9993
2 28382 087.4046 288.6239 7261348 001.9705 359.8091 02.29940812112753
Epoch (UTC): 18 October 2018 22:42:58
Eccentricity: 0.7261348
inclination: 87.4046°
perigee height: 262 km
apogee height: 35475 km
right ascension of ascending node: 288.6239°
argument of perigee: 1.9705°
revolutions per day: 2.29940812
mean anomaly at epoch: 359.8091°
orbit number at epoch: 11275

The dashed part of the orbit path shows where the satellite is in the earth's shadow,  

DLR